Other Public Products
Issued by NWS Grand Forks, ND

Home | Current Version | Previous Version | Graphics & Text | Print | Product List | Glossary On
Versions: 1 2 3 4 5 6 7 8 9 10 11 12 13 14 15 16 17 18 19 20 21 22 23 24 25 26 27 28 29 30 31 32 33 34 35 36 37 38 39 40 41 42 43 44 45 46 47 48 49 50
116
FPUS83 KFGF 210431
OPUFGF
PRAIRIE TO PINES WEATHER ROUNDUP
NATIONAL WEATHER SERVICE EASTERN NORTH DAKOTA/GRAND FORKS ND
1100 PM CDT WED SEP 20 2017

 **SATELLITE DATA USED TO AUGMENT SKY COVER AT AUTOMATED STATIONS**
 *****  WEATHER ACROSS EASTERN NORTH DAKOTA  *****

CITY           SKY/WX    TMP DP  RH WIND       PRES   REMARKS
GRAND FORKS    FAIR      56  46  69 S12       29.80R
GRAND FORKS AF FAIR      54  43  66 S10       29.80R
GRAND CITY NWS NOT AVBL
BUXTON           N/A     55  45  70 S8          N/A
DEVILS LAKE    FAIR      60  41  49 S16       29.76S
FARGO          FAIR      61  44  53 S10       29.85R
WAHPETON ARPT  FAIR      52  43  71 SE8       29.88S
$$

 *****  WEATHER ACROSS CENTRAL AND WESTERN NORTH DAKOTA  *****

CITY           SKY/WX    TMP DP  RH WIND       PRES   REMARKS
JAMESTOWN      FAIR      53  43  68 S7        29.80S
BISMARCK       FAIR      53  41  63 SE7       29.75R
MINOT          FAIR      51  37  58 SE8       29.67R
MINOT AFB      FAIR      47  37  70 S6        29.65R
GARRISON         N/A     56  43  61 S10       29.69R
WILLISTON      FAIR      53  36  52 S7        29.63R
DICKINSON      FAIR      49  36  61 S9        29.69S
HETTINGER      FAIR      54  34  46 SE6       29.74F
$$

 *****  OTHER OBSERVATIONS NORTHEAST NORTH DAKOTA  *****

CITY           SKY/WX    TMP DP  RH WIND       PRES   REMARKS
WALHALLA       FAIR     N/A N/A N/A S13       29.74S
LANGDON        FAIR      54  43  66 S14       29.76S
CAVALIER       FAIR      55  43  62 S10       29.76R
GRAFTON        FAIR      50  45  81 S9        29.80S
CANDO          FAIR      54  43  66 S14       29.76R
FORT TOTTEN      N/A     54  40  59 S9        29.95S
ROLLA          FAIR      52  39  62 S9        29.72S
RUGBY          FAIR      54  41  62 S12       29.71S
 ***** THE ABOVE OBSERVATIONS ARE NON NWS ARE NOT QUALITY
        CONTROLLED AND MAY MIS-REPORT RAIN FOR SNOW...
$$

 *****  OTHER OBSERVATIONS SOUTHEAST NORTH DAKOTA *****

CITY           SKY/WX    TMP DP  RH WIND       PRES   REMARKS
COOPERSTOWN    FAIR      52  45  76 S12       29.82S
VALLEY CITY    FAIR      54  45  71 S10       29.85R
OAKES          NOT AVBL
GWINNER        CLEAR     46  45  93 CALM      29.85S
SHEYENNE NWR     N/A     54  45  71 S7        29.95
BUFFALO          N/A     55  38  51 SW8         N/A
WYNDMERE       NOT AVBL
 ***** THE ABOVE OBSERVATIONS ARE NON NWS ARE NOT QUALITY
       CONTROLLED AND MAY MIS-REPORT RAIN FOR SNOW...
$$

  *****  WEATHER ACROSS NORTHERN MINNESOTA  *****

CITY           SKY/WX    TMP DP  RH WIND       PRES   REMARKS
FLAG ISLAND    FAIR      59  48  67 S7        29.82R
WARROAD        FAIR      54  45  71 S5        29.84R
ROSEAU         FAIR      54  45  71 S9        29.83R
HALLOCK        CLOUDY    54  46  76 S10       29.79R
THF RVR FALLS  FAIR      55  44  66 S7        29.86R
HALSTAD          N/A     53  45  72 S9          N/A
FOSSTON        FAIR      54  46  76 SE7       29.89R
BAUDETTE       FAIR      52  45  77 S6        29.85R
WASKISH        FAIR      52  45  76 S6        29.89R
CROOKSTON      FAIR      55  45  67 S8        29.84S
$$
  *****  WEATHER ACROSS CENTRAL AND WEST MINNESOTA  *****

CITY           SKY/WX    TMP DP  RH WIND       PRES   REMARKS
BEMIDJI        FAIR      51  44  76 S6        29.91R
PARK RAPIDS    FAIR      54  46  74 SE6       29.92R
WADENA         FAIR      46  43  87 CALM      29.93R
DETROIT LAKES  FAIR      54  45  71 S7        29.91R
MOORHEAD       FAIR      55  45  67 SE9       29.87S
FERGUS FALLS   FAIR      55  45  67 SE7       29.90S
ELBOW LAKE     FAIR      54  45  71 CALM      29.91S
MORRIS MN      FAIR      52  46  82 SE5       29.91R
STAPLES        NOT AVBL
WHEATON        FAIR      54  45  71 SE10      29.90S
$$
  *****  WEATHER ELSEWHERE ACROSS MINNESOTA  *****

CITY           SKY/WX    TMP DP  RH WIND       PRES   REMARKS
DULUTH         FAIR      50  46  86 CALM      29.95R
INTRNTL FALLS  FAIR      45  42  89 SE3       29.88R
ELY            FAIR      46  45  93 CALM      29.95R
CLOQUET        FAIR      46  45  93 CALM      29.95S
BRAINERD       FAIR      47  46  97 CALM      29.95R
HIBBING        FAIR      41  41 100 CALM      29.95R FOG
ALEXANDRIA     FAIR      53  46  77 S7        29.94R
SAINT CLOUD    FAIR      49  49 100 CALM      29.94R
MINNEAPOLIS    FAIR      61  52  72 CALM      29.94R
$$

  *****  WEATHER ACROSS SOUTH DAKOTA  *****

CITY           SKY/WX    TMP DP  RH WIND       PRES   REMARKS
SIOUX FALLS    FAIR      53  50  89 CALM      29.92R
BROOKINGS      FAIR      55  47  74 SE10      29.92R
WATERTOWN      FAIR      55  46  71 SE9       29.89R
HURON          FAIR      57  47  69 SE12      29.86R
SISSETON         N/A     50  46  86 E7        29.87S
ABERDEEN       FAIR      55  44  66 SE12      29.83R
MITCHELL       FAIR      58  49  72 S9        29.87S
PIERRE         FAIR      58  36  43 SE9       29.79R
MOBRIDGE       FAIR      58  35  42 E12       29.76S
RAPID CITY     CLEAR     61  36  39 CALM      29.78R
$$

  *****  SOME WEATHER IN NEARBY STATES *****

CITY           SKY/WX    TMP DP  RH WIND       PRES   REMARKS
GLASGOW MT     FAIR      55  36  48 S6        29.59R
GREAT FALLS MT FAIR      45  31  58 SW8       29.66R
CHEYENNE WY    FAIR      54  29  38 SE8       29.90F
SCOTTSBLUFF NE FAIR      60  35  39 SE16      29.83S
OMAHA NE       FAIR      63  55  75 NW3       29.89S
DES MOINES IA  FAIR      74  60  61 NE9       29.89R
DAVENPORT IA   TSTM      71  67  87 NW10      30.00R FOG
CHICAGO IL     MOCLDY    81  66  60 SW9       29.93R
EAU CLAIRE WI  FAIR      56  55  97 CALM      29.94R
LA CROSSE WI   NOT AVBL
$$

  *****  SOME NATIONAL WEATHER *****

CITY           SKY/WX    TMP DP  RH WIND       PRES   REMARKS
LA GUARDIA NY  MOCLDY    75  65  70 N13       29.92S
RALEIGH NC     FAIR      70  67  90 CALM      30.01S
ATLANTA GA     FAIR      75  67  76 NW3       30.06R
NEW ORLEANS LA FAIR      75  74  96 CALM      30.01S
OKLAHOMA CITY  MOCLDY    80  71  74 S12       29.89R
ALBUQUERQUE NM FAIR      70  23  17 SE9       29.98R
SALT LAKE CITY CLOUDY    68  39  34 NW12      29.62R
LOS ANGELES CA CLOUDY    68  64  87 W13       29.86R
BOISE ID       CLOUDY    50  43  77 SE7       29.72F
SEATTLE WA     MOCLDY    54  48  80 SE8       29.82R
$$

*** WEATHER ACROSS MANITOBA...SASKATCHEWAN AND ONTARIO ***
                ***ONTARIO***

CITY           SKY/WX    TMP DP  RH WIND       PRES   REMARKS
GERALDTON      PTCLDY    57  54  88 VRB2      29.90R
THUNDER BAY    CLEAR     54  54 100 W6        29.91R
SIOUX LOOKOUT  CLEAR     48  45  87 SE6       29.86R
TORONTO        CLEAR     70  59  68 E3        30.04S
BIG TROUT LK   CLEAR     54  50  87 SW10G17   29.73R
PICKLE LAKE    NOT AVBL
DRYDEN         CLEAR     54  45  71 S9        29.85S
KENORA         CLEAR     55  45  67 S8        29.82R
$$
                *** MANITOBA***

CITY           SKY/WX    TMP DP  RH WIND       PRES   REMARKS
BRANDON        MOCLDY    55  39  54 SW9       29.65R
DAUPHIN        CLEAR     55  37  50 SW14      29.58R
ISLAND LAKE    PTCLDY    57  41  54 S13G24    29.58R
PILOT MOUND      N/A     50  41  71 S12         N/A
THE PAS        PTCLDY    46  43  87 S6        29.42R
THOMPSON       LGT RAIN  48  46  93 S9G17     29.36S
WINNIPEG       PTCLDY    57  41  54 S13       29.72R
LYNN LAKE      LGT RAIN  41  41 100 NE18      29.32R FOG
CHURCHILL      LGT RAIN  45  43  93 E28G36    29.56F
GILLAM         CLEAR     46  45  93 S7        29.49S
$$
                ***SASKATCHEWAN***

CITY           SKY/WX    TMP DP  RH WIND       PRES   REMARKS
ESTEVAN        PTCLDY    46  36  66 SE8       29.61R
KINDERSLEY     CLEAR     37  32  81 W9G17     29.49R
LLOYDMINSTER   MOCLDY    43  37  81 W7        29.44R
PRINCE ALBERT  PTCLDY    39  37  93 N2        29.43R
REGINA         PTCLDY    45  32  61 S12       29.54R
YORKTON        PTCLDY    52  36  54 S9        29.54R



USA.gov is the U.S. government's official web portal to all federal, state and local government web resources and services.